Home   Weather   San Diego   Past weeks
Flag for USA

Past Weather in San Diego, California, USA — Yesterday and Last 2 Weeks

Now
68 °F

Scattered clouds.


Feels Like: 68 °F
Forecast: 64 / 52 °F
Wind: 12 mph from Northwest

Location: San Diego - North Island

Current Time: Mar 22, 2019 at 4:09:51 pm

Latest Report: Mar 22, 2019 at 2:52 pm


Visibility: 10 mi

Pressure: 30.14 "Hg

Humidity: 51%

Dew Point: 49 °F

Location of San DiegoLocation

Past Weather in San Diego — Graph

°F

San Diego Temperature Yesterday

Maximum temperature yesterday: 68 °F (at 1:52 pm)
Minimum temperature yesterday: 61 °F (at 5:52 am)
Average temperature yesterday: 64 °F

High & Low Weather Summary for the Past Weeks

 TemperatureHumidityPressure
High77 °F (Mar 17, 12:52 pm)84% (Mar 19, 12:52 am)30.19 "Hg (Mar 19, 12:52 am)
Low53 °F (Mar 10, 6:52 am)18% (Mar 15, 1:52 pm)29.74 "Hg (Mar 12, 4:52 am)
Average63 °F59%30.01 "Hg
* Reported Mar 7 12:52 pm — Mar 22 1:52 pm, San Diego. Weather by CustomWeather, © 2019

Note: Actual official high and low records may vary slightly from our data, if they occured in-between our weather recording intervals... More about our weather records

Advertising

San Diego Weather History for the Previous 24 Hours

Scroll right to see more
 ConditionsComfort  
Time TempWeatherWind HumidityBarometerVisibility
1:52 pm
Fri, Mar 22
69 °FPassing clouds.12 mph51%30.15 "Hg10 mi
12:52 pm68 °FScattered clouds.9 mph51%30.16 "Hg10 mi
11:52 am68 °FScattered clouds.12 mph51%30.19 "Hg10 mi
10:52 am66 °FScattered clouds.3 mph54%30.19 "Hg10 mi
9:52 am64 °FScattered clouds.6 mph58%30.18 "Hg10 mi
8:52 am62 °FScattered clouds.No wind62%30.18 "Hg9 mi
7:52 am58 °FScattered clouds.3 mph70%30.18 "Hg10 mi
6:52 am57 °FScattered clouds.No wind72%30.16 "Hg10 mi
5:52 am57 °FPassing clouds.No wind69%30.15 "Hg10 mi
4:52 am56 °FPassing clouds.6 mph72%30.14 "Hg10 mi
3:52 am56 °FPartly cloudy.3 mph75%30.15 "Hg10 mi
2:52 am58 °FPartly cloudy.No wind72%30.16 "Hg10 mi
1:52 am61 °FPartly cloudy.3 mph65%30.16 "Hg10 mi
12:52 am61 °FPartly cloudy.6 mph67%30.16 "Hg10 mi
11:52 pm
Thu, Mar 21
62 °FPartly cloudy.No wind65%30.15 "Hg10 mi
10:52 pm62 °FPassing clouds.6 mph65%30.16 "Hg10 mi
9:52 pm62 °FPassing clouds.9 mph62%30.15 "Hg10 mi
8:52 pm62 °FPassing clouds.8 mph67%30.14 "Hg10 mi
7:52 pm63 °FPassing clouds.10 mph63%30.11 "Hg10 mi
6:52 pm64 °FScattered clouds.8 mph63%30.11 "Hg10 mi
5:52 pm65 °FScattered clouds.10 mph66%30.11 "Hg10 mi
4:52 pm66 °FBroken clouds.13 mph68%30.11 "Hg10 mi
4:43 pm64 °FLight rain. Broken clouds.14 mph70%30.12 "Hg10 mi
4:33 pm64 °FRain. Broken clouds.14 mph70%30.12 "Hg2 mi
4:08 pm63 °FLight rain. Broken clouds.10 mph73%30.12 "Hg7 mi
Weather by CustomWeather, © 2019

See weather overview